• In Netherlands
  • List of Countries
  • For 7 days
  • Water Temperature
  • Satellite Maps
  • Weather Map
  • Weather Widgets
  • user-avatar
    Login

    Hourly Weather Adelaide

    Today, 26 June, Monday

    Time Temperature Precipitation Wind Pressure Humidity
    00:00 +9°C° 0 mm 2 mps 763 mmHg 91%
    01:00 +9°C° 0 mm 2 mps 763 mmHg 91%
    02:00 +9°C° 0 mm 2 mps 763 mmHg 92%
    03:00 +9°C° 0 mm 2 mps 763 mmHg 94%
    04:00 +8°C° 0 mm 2 mps 763 mmHg 94%
    05:00 +9°C° 0 mm 1 mps 763 mmHg 95%
    06:00 +9°C° 0 mm 1 mps 763 mmHg 95%
    07:00 +10°C° 0 mm 1 mps 764 mmHg 91%
    08:00 +12°C° 0 mm 1 mps 764 mmHg 86%
    09:00 +13°C° 0 mm 1 mps 764 mmHg 82%
    10:00 +14°C° 0 mm 1 mps 764 mmHg 75%
    11:00 +16°C° 0 mm 1 mps 764 mmHg 68%
    12:00 +18°C° 0 mm 1 mps 764 mmHg 60%
    13:00 +18°C° 0 mm 1 mps 764 mmHg 61%
    14:00 +16°C° 0 mm 1 mps 764 mmHg 62%
    15:00 +16°C° 0 mm 1 mps 763 mmHg 62%
    16:00 +14°C° 0 mm 1 mps 764 mmHg 69%
    17:00 +13°C° 0 mm 1 mps 764 mmHg 76%
    18:00 +11°C° 0 mm 1 mps 764 mmHg 83%
    19:00 +11°C° 0 mm 1 mps 764 mmHg 85%
    20:00 +11°C° 0 mm 1 mps 764 mmHg 86%
    21:00 +10°C° 0 mm 2 mps 764 mmHg 88%
    22:00 +10°C° 0 mm 2 mps 764 mmHg 87%
    23:00 +10°C° 0 mm 2 mps 764 mmHg 86%

    Tomorrow, 27 June, Tuesday

    Time Temperature Precipitation Wind Pressure Humidity
    00:00 +9°C° 0 mm 2 mps 764 mmHg 85%
    01:00 +9°C° 0 mm 2 mps 764 mmHg 85%
    02:00 +10°C° 0 mm 2 mps 764 mmHg 85%
    03:00 +10°C° 0 mm 2 mps 763 mmHg 86%
    04:00 +10°C° 0 mm 2 mps 763 mmHg 86%
    05:00 +10°C° 0 mm 2 mps 763 mmHg 86%
    06:00 +10°C° 0 mm 2 mps 763 mmHg 85%
    07:00 +12°C° 0.1 mm 2 mps 764 mmHg 79%
    08:00 +13°C° 0.1 mm 2 mps 764 mmHg 73%
    09:00 +14°C° 0.1 mm 2 mps 764 mmHg 67%
    10:00 +15°C° 0.1 mm 2 mps 764 mmHg 62%
    11:00 +16°C° 0.1 mm 3 mps 763 mmHg 57%
    12:00 +17°C° 0.1 mm 3 mps 763 mmHg 52%
    13:00 +17°C° 0.1 mm 2 mps 762 mmHg 53%
    14:00 +17°C° 0.1 mm 2 mps 762 mmHg 54%
    15:00 +17°C° 0.1 mm 2 mps 762 mmHg 55%
    16:00 +15°C° 0 mm 2 mps 762 mmHg 65%
    17:00 +13°C° 0 mm 1 mps 762 mmHg 74%
    18:00 +11°C° 0 mm 1 mps 762 mmHg 83%
    19:00 +11°C° 0 mm 1 mps 763 mmHg 83%
    20:00 +11°C° 0 mm 1 mps 763 mmHg 83%
    21:00 +11°C° 0 mm 1 mps 763 mmHg 83%
    22:00 +11°C° 0 mm 1 mps 763 mmHg 84%
    23:00 +10°C° 0 mm 2 mps 763 mmHg 85%

    Day after tomorrow, 28 June, Wednesday

    Time Temperature Precipitation Wind Pressure Humidity
    00:00 +10°C° 0 mm 2 mps 763 mmHg 86%
    01:00 +9°C° 0 mm 2 mps 763 mmHg 88%
    02:00 +9°C° 0 mm 2 mps 763 mmHg 90%
    03:00 +9°C° 0 mm 2 mps 763 mmHg 92%
    04:00 +9°C° 0 mm 2 mps 763 mmHg 92%
    05:00 +9°C° 0 mm 2 mps 763 mmHg 92%
    06:00 +8°C° 0 mm 2 mps 763 mmHg 92%
    07:00 +10°C° 0.2 mm 2 mps 763 mmHg 87%
    08:00 +12°C° 0.2 mm 2 mps 764 mmHg 83%
    09:00 +13°C° 0.2 mm 2 mps 764 mmHg 78%
    10:00 +14°C° 0.3 mm 2 mps 764 mmHg 73%
    11:00 +15°C° 0.3 mm 2 mps 764 mmHg 69%
    12:00 +16°C° 0.3 mm 2 mps 763 mmHg 64%
    13:00 +16°C° 0.2 mm 2 mps 763 mmHg 67%
    14:00 +15°C° 0.2 mm 2 mps 763 mmHg 69%
    15:00 +15°C° 0.2 mm 2 mps 763 mmHg 72%
    16:00 +13°C° 0 mm 2 mps 764 mmHg 77%
    17:00 +12°C° 0 mm 2 mps 764 mmHg 82%
    18:00 +10°C° 0 mm 2 mps 764 mmHg 86%
    19:00 +10°C° 0 mm 2 mps 765 mmHg 87%
    20:00 +10°C° 0 mm 3 mps 765 mmHg 87%
    21:00 +9°C° 0 mm 3 mps 766 mmHg 87%
    22:00 +9°C° 0 mm 3 mps 766 mmHg 87%
    23:00 +9°C° 0 mm 3 mps 766 mmHg 87%

    29 June, Thursday

    Time Temperature Precipitation Wind Pressure Humidity
    00:00 +9°C° 0 mm 3 mps 766 mmHg 87%
    01:00 +9°C° 0 mm 3 mps 766 mmHg 85%
    02:00 +9°C° 0 mm 3 mps 766 mmHg 83%
    03:00 +9°C° 0 mm 3 mps 766 mmHg 81%
    04:00 +9°C° 0 mm 3 mps 766 mmHg 80%
    05:00 +9°C° 0 mm 3 mps 767 mmHg 80%
    06:00 +9°C° 0 mm 3 mps 767 mmHg 79%
    07:00 +10°C° 0 mm 4 mps 767 mmHg 76%
    08:00 +11°C° 0 mm 4 mps 768 mmHg 73%
    09:00 +12°C° 0 mm 4 mps 768 mmHg 70%
    10:00 +13°C° 0 mm 4 mps 768 mmHg 69%
    11:00 +13°C° 0 mm 4 mps 767 mmHg 67%
    12:00 +14°C° 0 mm 4 mps 767 mmHg 66%
    13:00 +14°C° 0.2 mm 4 mps 767 mmHg 69%
    14:00 +14°C° 0.2 mm 4 mps 767 mmHg 71%
    15:00 +14°C° 0.2 mm 4 mps 767 mmHg 74%
    16:00 +13°C° 0.2 mm 4 mps 767 mmHg 78%
    17:00 +12°C° 0.2 mm 4 mps 767 mmHg 83%
    18:00 +11°C° 0.2 mm 3 mps 768 mmHg 88%
    19:00 +10°C° 0 mm 3 mps 768 mmHg 88%
    20:00 +9°C° 0 mm 3 mps 769 mmHg 88%
    21:00 +8°C° 0 mm 2 mps 769 mmHg 89%
    22:00 +8°C° 0 mm 2 mps 769 mmHg 89%
    23:00 +7°C° 0 mm 2 mps 769 mmHg 89%

    30 June, Friday

    Time Temperature Precipitation Wind Pressure Humidity
    00:00 +6°C° 0 mm 2 mps 769 mmHg 89%
    01:00 +6°C° 0 mm 2 mps 769 mmHg 90%
    02:00 +6°C° 0 mm 1 mps 769 mmHg 91%
    03:00 +6°C° 0 mm 1 mps 769 mmHg 92%
    04:00 +6°C° 0 mm 1 mps 770 mmHg 92%
    05:00 +5°C° 0 mm 2 mps 770 mmHg 91%
    06:00 +5°C° 0 mm 2 mps 770 mmHg 91%
    07:00 +7°C° 0 mm 2 mps 770 mmHg 86%
    08:00 +8°C° 0 mm 2 mps 770 mmHg 82%
    09:00 +9°C° 0 mm 2 mps 771 mmHg 77%
    10:00 +10°C° 0 mm 2 mps 770 mmHg 68%
    11:00 +12°C° 0 mm 2 mps 770 mmHg 59%
    12:00 +14°C° 0 mm 2 mps 769 mmHg 50%
    13:00 +14°C° 0 mm 2 mps 769 mmHg 48%
    14:00 +14°C° 0 mm 2 mps 769 mmHg 46%
    15:00 +15°C° 0 mm 2 mps 768 mmHg 44%
    16:00 +13°C° 0 mm 2 mps 768 mmHg 50%
    17:00 +10°C° 0 mm 2 mps 768 mmHg 57%
    18:00 +8°C° 0 mm 2 mps 769 mmHg 63%
    19:00 +8°C° 0 mm 2 mps 769 mmHg 63%
    20:00 +8°C° 0 mm 3 mps 769 mmHg 62%
    21:00 +8°C° 0 mm 3 mps 769 mmHg 62%
    22:00 +7°C° 0 mm 3 mps 768 mmHg 62%
    23:00 +7°C° 0 mm 3 mps 768 mmHg 61%

    1 July, Saturday

    Time Temperature Precipitation Wind Pressure Humidity
    00:00 +7°C° 0 mm 3 mps 768 mmHg 61%
    01:00 +7°C° 0 mm 3 mps 768 mmHg 60%
    02:00 +7°C° 0 mm 3 mps 768 mmHg 60%
    03:00 +7°C° 0 mm 3 mps 767 mmHg 60%
    04:00 +7°C° 0 mm 3 mps 767 mmHg 60%
    05:00 +7°C° 0 mm 3 mps 768 mmHg 60%
    06:00 +7°C° 0 mm 3 mps 768 mmHg 59%
    07:00 +7°C° 0 mm 4 mps 768 mmHg 56%
    08:00 +8°C° 0 mm 4 mps 768 mmHg 52%
    09:00 +10°C° 0 mm 4 mps 768 mmHg 48%
    10:00 +12°C° 0 mm 4 mps 767 mmHg 45%
    11:00 +13°C° 0 mm 4 mps 767 mmHg 42%
    12:00 +15°C° 0 mm 4 mps 766 mmHg 38%
    13:00 +16°C° 0 mm 3 mps 765 mmHg 38%
    14:00 +16°C° 0 mm 3 mps 765 mmHg 38%
    15:00 +16°C° 0 mm 3 mps 764 mmHg 37%
    16:00 +13°C° 0 mm 3 mps 765 mmHg 41%
    17:00 +12°C° 0 mm 3 mps 765 mmHg 44%
    18:00 +10°C° 0 mm 3 mps 765 mmHg 48%
    19:00 +10°C° 0 mm 3 mps 765 mmHg 46%
    20:00 +10°C° 0 mm 4 mps 765 mmHg 44%
    21:00 +8°C° 0 mm 4 mps 764 mmHg 42%
    22:00 +8°C° 0 mm 4 mps 764 mmHg 42%
    23:00 +8°C° 0 mm 4 mps 764 mmHg 42%
    Show more